SCP
0 0 0 0 0 0 0 0 0 0 0 0 0 0 0 0 0 0 0 0 0 0 0 0 0 0 0 0 0 0 0 0 0 0 0 0 0 0 0 0 0 0 0 0
0 0 0 0 0 0 0 0 0 0 0 0 0 0 0 0 0 0 0 0 0 0 0 0 0 0 0 0 0 0 0 0 0 0 0 0 0 0 0 0 0 0 0 0
0 0 0 0 0 0 0 0 0 0 0 0 0 0 0 0 0 0 0 0 0 0 0 0 0 0 0 0 0 0 0 0 0 0 0 0 0 0 0 0 0 0 0 0
0 0 0 0 0 0 0 0 0 0 0 0 0 0 0 0 0 0 0 0 0 0 0 0 0 0 0 0 0 0 0 0 0 0 0 0 0 0 0 0 0 0 0 0
0 0 0 0 0 0 0 0 0 0 0 0 0 0 0 0 0 0 0 0 0 0 0 0 0 0 0 0 0 0 0 0 0 0 0 0 0 0 0 0 0 0 0 0
0 0 0 0 0 0 0 0 0 0 0 0 0 0 0 0 0 0 0 0 0 0 0 0 0 0 0 0 0 0 0 0 0 0 0 0 0 0 0 0 0 0 0 0
0 0 0 0 0 0 0 0 0 0 0 0 0 0 0 0 0 0 0 0 0 0 0 0 0 0 0 0 0 0 0 0 0 0 0 0 0 0 0 0 0 0 0 0
0 0 0 0 0 0 0 0 0 0 0 0 0 0 0 0 0 0 0 0 0 0 0 0 0 0 0 0 0 0 0 0 0 0 0 0 0 0 0 0 0 0 0 0
0 0 0 0 0 0 0 0 0 0 0 0 0 0 0 0 0 0 0 0 0 0 0 0 0 0 0 0 0 0 0 0 0 0 0 0 0 0 0 0 0 0 0 0
0 0 0 0 0 0 0 0 0 0 0 0 0 0 0 0 0 0 0 0 0 0 0 0 0 0 0 0 0 0 0 0 0 0 0 0 0 0 0 0 0 0 0 0
0 0 0 0 0 0 0 0 0 0 0 0 0 0 0 0 0 0 0 0 0 0 0 0 0 0 0 0 0 0 0 0 0 0 0 0 0 0 0 0 0 0 0 0
0 0 0 0 0 0 0 0 0 0 0 0 0 0 0 0 0 0 0 0 0 0 0 0 0 0 0 0 0 0 0 0 0 0 0 0 0 0 0 0 0 0 0 0
0 0 0 0 0 0 0 0 0 0 0 0 0 0 0 0 0 0 0 0 0 0 0 0 0 0 0 0 0 0 0 0 0 0 0 0 0 0 0 0 0 0 0 0
0 0 0 0 0 0 0 0 0 0 0 0 0 0 0 0 0 0 0 0 0 0 0 0 0 0 0 0 0 0 0 0 0 0 0 0 0 0 0 0 0 0 0 0
0 0 0 0 0 0 0 0 0 0 0 0 0 0 0 0 0 0 0 0 0 0 0 0 0 0 0 0 0 0 0 0 0 0 0 0 0 0 0 0 0 0 0 0
0 0 0 0 0 0 0 0 0 0 0 0 0 0 0 0 0 -0 -0 0 0 0 0 0 0 0 0 0 0 0 0 0 0 0 0 0 0 0 0 0 0 0 0 0
0 0 0 0 0 0 0 0 0 0 0 0 0 0 0 0 0 0 0 0 0 0 0 0 0 0 0 0 0 0 0 0 0 0 0 0 0 0 0 0 0 0 0 0
0 0 0 0 0 0 0 0 0 0 0 0 0 0 0 0 0 0 0 0 0 0 0 0 0 0 0 0 0 0 0 0 0 0 0 0 0 0 0 0 0 0 0 0
0 0 0 0 0 0 0 0 0 0 0 0 0 0 0 0 0 0 0 0 0 0 0 0 0 0 0 0 0 0 0 0 0 0 0 0 0 0 0 0 0 0 0 0
0 0 0 0 0 0 0 0 0 0 0 0 0 0 0 0 0 0 0 0 0 0 0 0 0 0 0 0 0 0 0 0 0 0 0 0 0 0 0 0 0 0 0 0
0 0 0 0 0 0 0 0 0 0 0 0 0 0 0 0 0 0 0 0 0 0 0 0 0 0 0 0 0 0 0 0 0 0 0 0 0 0 0 0 0 0 0 0
0 0 0 0 0 0 0 0 0 0 0 0 0 0 0 0 0 0 0 0 0 0 0 0 0 0 0 0 0 0 0 0 0 0 0 0 0 0 0 0 0 0 0 0
0 0 0 0 0 0 0 0 0 0 0 0 0 0 0 0 0 0 0 0 0 0 0 0 0 0 0 0 0 0 0 0 0 0 0 0 0 0 0 0 0 0 0 0
0 0 0 0 0 0 0 0 0 0 0 0 0 0 0 0 0 0 0 0 0 0 0 0 0 0 0 0 0 0 0 0 0 0 0 0 0 0 0 0 0 0 0 0
0 0 0 0 0 0 0 0 0 0 0 0 0 0 0 0 0 0 0 0 0 0 0 0 0 0 0 0 0 0 0 0 0 0 0 0 0 0 0 0 0 0 0 0
0 0 0 0 0 0 0 0 0 0 0 0 0 0 0 0 0 0 0 0 0 0 0 0 0 0 0 0 0 0 0 0 0 0 0 0 0 0 0 0 0 0 0 0
Wind_Speed_500mb
27 9 19 9 9 17 23 7 5 9 6 5 10 20 22 20 8 16 21 24 25 28 21 33 40 37 38 44 50 49 42 41 44 43 46 44 45 39 38 36 33 34 33 31
10 13 13 17 12 14 13 10 7 7 15 6 1 21 31 16 9 12 21 30 29 22 27 29 28 40 46 41 39 43 46 48 48 50 47 48 44 44 41 39 38 38 37 36
16 9 18 15 12 13 2 15 11 5 10 8 12 8 17 9 15 18 13 13 11 16 23 25 21 24 39 48 47 48 53 56 53 54 54 54 57 51 45 44 45 43 43 42
5 3 19 17 13 12 9 11 10 15 11 2 3 7 8 9 13 8 32 18 8 11 18 18 17 19 27 40 48 55 55 59 47 50 53 47 54 55 48 46 42 42 48 49
2 8 13 13 10 12 8 12 9 7 10 5 10 3 9 4 7 8 17 15 11 12 18 17 15 15 18 26 38 46 54 54 55 52 43 49 49 46 50 47 41 37 38 47
2 3 10 12 8 17 17 9 9 8 6 5 12 10 9 6 5 9 7 12 12 10 15 17 15 14 15 17 21 29 36 43 48 49 49 54 53 52 51 49 47 45 37 37
6 7 8 5 14 4 5 29 3 3 2 7 2 5 10 7 8 6 6 15 15 12 13 13 15 13 13 13 14 17 21 28 38 47 49 52 58 58 56 53 51 47 46 44
8 5 5 1 8 13 6 7 8 11 6 7 3 8 5 6 12 14 16 19 18 15 13 12 9 8 9 11 13 17 19 21 24 31 36 40 50 55 57 55 51 52 49 51
8 3 3 4 7 9 8 5 5 12 2 3 7 5 8 7 11 17 16 16 17 11 8 6 3 6 9 11 15 17 18 20 22 25 32 35 42 49 53 48 47 50 46 55
6 9 5 4 12 3 10 13 3 5 6 3 2 2 4 9 8 5 7 13 13 11 9 7 4 3 7 10 11 15 19 22 23 24 26 29 32 29 34 37 37 45 37 39
6 6 1 4 9 2 6 4 7 8 5 6 5 4 1 5 10 9 10 9 7 6 5 4 6 7 7 8 10 12 12 14 17 20 20 21 24 29 25 28 30 28 21 27
3 7 7 6 5 5 2 6 6 6 5 2 4 4 3 5 7 14 11 9 6 3 3 6 7 7 8 9 8 6 6 6 8 10 11 11 10 11 13 17 16 15 17 17
4 4 7 6 5 6 6 4 7 9 5 4 6 5 3 6 2 6 10 10 7 4 1 2 3 5 7 8 7 6 6 3 3 1 5 7 8 10 10 4 7 5 7 8
10 6 7 8 3 5 7 6 6 9 6 5 6 2 7 11 12 8 9 10 11 8 4 2 2 2 4 5 6 8 8 7 5 7 5 6 8 9 9 8 9 9 11 10
7 8 5 10 8 6 4 11 11 6 6 8 7 7 9 8 4 11 11 14 18 16 12 7 5 3 2 3 6 8 9 9 10 9 9 11 12 13 13 12 12 11 12 13
8 4 4 11 15 13 6 5 11 6 4 3 5 7 7 20 20 14 7 17 23 20 15 13 9 7 6 5 6 8 10 12 13 12 13 15 16 16 17 18 19 19 19 19
5 8 6 3 8 8 8 9 8 4 5 11 7 12 8 10 22 21 30 17 18 20 17 16 12 11 10 8 7 10 11 12 13 12 13 15 17 17 18 18 18 17 17 15
9 8 6 4 5 2 9 7 3 5 4 9 6 10 12 18 29 28 19 16 13 12 14 15 16 16 16 14 11 10 12 12 13 13 13 15 16 15 15 15 13 12 12 10
13 9 7 7 5 9 5 6 11 11 5 9 6 7 11 19 9 2 7 8 7 6 8 10 14 16 15 13 12 12 12 14 15 14 13 11 11 11 11 10 9 9 9 8
13 16 7 6 9 9 9 2 4 6 6 11 6 3 9 8 4 6 17 12 5 9 8 11 15 16 16 16 18 18 19 18 17 15 15 15 13 12 10 9 8 7 6 4
8 8 8 4 1 14 13 5 4 12 9 16 11 4 5 1 5 18 19 13 7 10 11 17 20 15 11 15 18 19 19 18 16 15 14 14 15 14 13 11 10 8 5 3
8 9 4 6 7 13 17 8 11 9 19 17 11 2 6 11 16 18 15 16 11 12 18 25 26 21 12 20 23 20 18 17 16 14 14 13 13 12 11 10 8 5 6 8
4 11 8 15 11 9 29 9 18 20 14 16 12 6 11 13 13 17 17 17 13 13 21 28 30 30 23 21 21 25 23 20 19 19 19 16 14 14 13 11 10 11 12 13
8 13 6 6 10 32 31 33 24 21 21 18 19 25 25 25 17 20 25 20 20 19 21 28 34 36 31 28 28 28 28 26 25 23 23 20 18 16 17 17 18 18 18 18
8 17 10 10 16 15 24 32 38 38 40 31 30 32 31 28 27 24 24 23 22 21 22 26 30 33 33 34 33 30 30 28 24 23 23 22 23 24 24 23 23 24 25 26
22 13 10 14 20 19 16 4 15 22 16 19 22 23 20 22 13 16 19 20 20 17 18 22 25 29 32 33 32 30 30 29 29 30 29 28 29 30 29 29 30 29 30 30
Wind_Direction_500mb
163 139 199 128 129 114 117 94 155 97 50 30 341 293 298 304 284 229 214 222 219 222 216 214 218 219 222 225 221 220 219 219 216 213 206 211 223 229 232 237 240 245 248 251
141 205 152 148 133 127 123 111 252 112 114 208 230 294 291 293 268 243 213 206 220 225 207 207 215 221 223 222 223 226 226 228 225 223 223 222 226 231 237 242 247 248 250 253
147 184 156 152 141 125 69 179 192 150 114 327 348 259 249 278 249 224 228 202 179 193 197 198 206 214 217 223 223 224 234 236 231 229 228 226 229 235 240 243 248 249 254 258
140 85 157 149 167 149 124 183 203 135 113 68 304 301 234 215 250 209 223 225 166 164 184 188 188 196 208 215 221 224 229 235 235 231 231 233 240 244 247 252 257 262 260 261
43 111 137 155 176 153 146 143 140 117 117 148 166 215 258 146 227 253 69 116 132 152 173 175 175 174 189 205 218 225 229 233 241 238 234 239 244 250 252 253 257 269 272 260
98 99 135 176 139 166 135 97 59 68 108 240 192 173 279 113 8 69 81 98 104 142 165 176 179 181 182 195 209 225 230 230 236 239 235 235 237 243 248 255 261 268 272 262
62 351 323 130 111 93 123 148 90 58 351 216 338 129 253 23 20 300 217 138 146 151 163 181 193 199 201 199 209 222 229 230 231 237 237 241 243 247 249 252 256 261 264 258
141 178 249 322 139 156 150 169 150 168 170 187 155 216 293 47 53 61 108 112 120 134 148 165 188 224 237 237 228 226 230 232 234 238 239 240 247 248 250 253 257 264 263 263
132 66 308 74 106 142 170 183 143 106 232 127 179 236 96 90 66 78 92 105 97 104 105 107 133 286 286 276 269 264 254 247 241 241 243 245 247 249 248 248 254 265 264 268
179 103 11 102 112 324 161 155 92 22 137 190 17 272 119 6 14 142 143 129 122 109 86 67 56 334 308 302 290 274 266 264 260 255 253 252 247 251 243 239 240 256 262 261
133 83 8 86 20 95 89 91 48 109 84 144 125 260 152 340 311 216 178 166 136 108 83 41 15 350 333 322 306 294 278 259 252 251 254 252 250 245 250 239 242 246 240 266
27 109 96 81 18 344 75 139 128 126 258 31 99 293 337 53 347 141 174 175 158 116 36 23 23 12 3 356 352 338 319 296 270 248 243 244 241 231 231 233 213 227 229 233
180 15 92 41 11 13 80 84 107 99 73 190 114 273 3 325 234 181 180 205 199 185 132 25 15 13 18 24 26 28 18 340 301 98 161 184 205 217 218 161 126 153 172 153
63 67 127 162 146 131 130 114 74 99 111 157 197 290 238 274 276 280 253 225 228 239 249 266 309 352 49 45 67 77 75 78 74 104 139 171 188 203 204 179 158 135 143 150
77 98 55 49 10 65 122 141 136 121 154 133 221 201 248 224 229 283 305 233 229 234 250 256 248 259 275 102 91 104 114 117 123 138 148 151 148 151 153 154 148 154 151 149
4 122 103 28 3 30 64 87 109 105 96 41 94 275 302 326 343 9 298 233 238 244 251 251 244 231 218 181 143 128 127 127 122 121 128 126 123 120 119 120 121 122 123 120
63 119 62 282 346 7 352 225 175 158 160 141 166 236 335 326 324 338 337 314 260 258 256 258 244 226 217 207 177 150 135 131 128 127 127 125 122 123 123 120 117 116 115 110
112 84 49 140 20 60 249 338 322 205 263 216 277 274 290 284 294 293 313 310 304 252 242 243 227 218 210 202 191 168 150 142 136 135 135 133 129 130 129 127 125 117 107 101
38 106 75 120 159 283 331 185 153 168 266 179 204 305 301 312 306 268 359 308 297 252 233 223 209 208 206 198 188 177 167 160 156 155 152 149 147 149 143 137 128 118 107 96
55 58 99 68 118 183 239 185 182 102 307 183 168 288 316 346 39 261 349 341 271 224 236 215 204 199 197 197 195 189 181 182 180 181 176 172 165 156 150 143 132 119 106 76
19 7 110 98 149 290 248 216 149 87 228 168 178 179 5 21 267 304 319 332 312 234 229 202 194 193 197 212 208 204 201 200 202 195 187 181 178 177 175 172 169 167 176 212
160 128 165 83 61 286 181 124 167 186 153 162 162 107 343 329 340 331 315 301 294 251 227 206 205 201 222 228 217 218 218 214 205 210 208 207 199 197 194 203 208 225 259 274
311 179 180 184 211 249 197 221 201 176 172 197 199 251 318 309 308 329 329 295 283 256 231 229 218 212 219 216 208 206 212 218 227 237 236 218 209 210 213 222 240 253 262 273
251 173 204 89 248 236 241 237 243 232 238 251 265 283 285 270 271 296 304 302 274 263 238 224 223 223 230 239 237 238 245 252 241 228 218 215 217 226 238 246 254 259 264 269
206 148 184 259 272 274 253 235 242 252 258 264 279 268 272 263 264 280 289 292 274 260 243 228 222 223 226 236 240 237 244 240 230 224 221 225 233 239 246 252 258 265 270 270
187 195 181 235 217 204 228 196 230 240 268 270 275 270 261 255 259 277 301 297 271 252 236 225 219 217 218 223 227 228 227 224 223 223 225 232 241 250 257 261 264 267 267 271
Wind_Speed_850mb
27 9 19 9 9 17 23 7 5 9 6 5 10 20 22 20 8 16 21 24 25 28 21 33 40 37 38 44 50 49 42 41 44 43 46 44 45 39 38 36 33 34 33 31
10 13 13 17 12 14 13 10 7 7 15 6 1 21 31 16 9 12 21 30 29 22 27 29 28 40 46 41 39 43 46 48 48 50 47 48 44 44 41 39 38 38 37 36
16 9 18 15 12 13 2 15 11 5 10 8 12 8 17 9 15 18 13 13 11 16 23 25 21 24 39 48 47 48 53 56 53 54 54 54 57 51 45 44 45 43 43 42
5 3 19 17 13 12 9 11 10 15 11 2 3 7 8 9 13 8 32 18 8 11 18 18 17 19 27 40 48 55 55 59 47 50 53 47 54 55 48 46 42 42 48 49
2 8 13 13 10 12 8 12 9 7 10 5 10 3 9 4 7 8 17 15 11 12 18 17 15 15 18 26 38 46 54 54 55 52 43 49 49 46 50 47 41 37 38 47
2 3 10 12 8 17 17 9 9 8 6 5 12 10 9 6 5 9 7 12 12 10 15 17 15 14 15 17 21 29 36 43 48 49 49 54 53 52 51 49 47 45 37 37
6 7 8 5 14 4 5 29 3 3 2 7 2 5 10 7 8 6 6 15 15 12 13 13 15 13 13 13 14 17 21 28 38 47 49 52 58 58 56 53 51 47 46 44
8 5 5 1 8 13 6 7 8 11 6 7 3 8 5 6 12 14 16 19 18 15 13 12 9 8 9 11 13 17 19 21 24 31 36 40 50 55 57 55 51 52 49 51
8 3 3 4 7 9 8 5 5 12 2 3 7 5 8 7 11 17 16 16 17 11 8 6 3 6 9 11 15 17 18 20 22 25 32 35 42 49 53 48 47 50 46 55
6 9 5 4 12 3 10 13 3 5 6 3 2 2 4 9 8 5 7 13 13 11 9 7 4 3 7 10 11 15 19 22 23 24 26 29 32 29 34 37 37 45 37 39
6 6 1 4 9 2 6 4 7 8 5 6 5 4 1 5 10 9 10 9 7 6 5 4 6 7 7 8 10 12 12 14 17 20 20 21 24 29 25 28 30 28 21 27
3 7 7 6 5 5 2 6 6 6 5 2 4 4 3 5 7 14 11 9 6 3 3 6 7 7 8 9 8 6 6 6 8 10 11 11 10 11 13 17 16 15 17 17
4 4 7 6 5 6 6 4 7 9 5 4 6 5 3 6 2 6 10 10 7 4 1 2 3 5 7 8 7 6 6 3 3 1 5 7 8 10 10 4 7 5 7 8
10 6 7 8 3 5 7 6 6 9 6 5 6 2 7 11 12 8 9 10 11 8 4 2 2 2 4 5 6 8 8 7 5 7 5 6 8 9 9 8 9 9 11 10
7 8 5 10 8 6 4 11 11 6 6 8 7 7 9 8 4 11 11 14 18 16 12 7 5 3 2 3 6 8 9 9 10 9 9 11 12 13 13 12 12 11 12 13
8 4 4 11 15 13 6 5 11 6 4 3 5 7 7 20 20 14 7 17 23 20 15 13 9 7 6 5 6 8 10 12 13 12 13 15 16 16 17 18 19 19 19 19
5 8 6 3 8 8 8 9 8 4 5 11 7 12 8 10 22 21 30 17 18 20 17 16 12 11 10 8 7 10 11 12 13 12 13 15 17 17 18 18 18 17 17 15
9 8 6 4 5 2 9 7 3 5 4 9 6 10 12 18 29 28 19 16 13 12 14 15 16 16 16 14 11 10 12 12 13 13 13 15 16 15 15 15 13 12 12 10
13 9 7 7 5 9 5 6 11 11 5 9 6 7 11 19 9 2 7 8 7 6 8 10 14 16 15 13 12 12 12 14 15 14 13 11 11 11 11 10 9 9 9 8
13 16 7 6 9 9 9 2 4 6 6 11 6 3 9 8 4 6 17 12 5 9 8 11 15 16 16 16 18 18 19 18 17 15 15 15 13 12 10 9 8 7 6 4
8 8 8 4 1 14 13 5 4 12 9 16 11 4 5 1 5 18 19 13 7 10 11 17 20 15 11 15 18 19 19 18 16 15 14 14 15 14 13 11 10 8 5 3
8 9 4 6 7 13 17 8 11 9 19 17 11 2 6 11 16 18 15 16 11 12 18 25 26 21 12 20 23 20 18 17 16 14 14 13 13 12 11 10 8 5 6 8
4 11 8 15 11 9 29 9 18 20 14 16 12 6 11 13 13 17 17 17 13 13 21 28 30 30 23 21 21 25 23 20 19 19 19 16 14 14 13 11 10 11 12 13
8 13 6 6 10 32 31 33 24 21 21 18 19 25 25 25 17 20 25 20 20 19 21 28 34 36 31 28 28 28 28 26 25 23 23 20 18 16 17 17 18 18 18 18
8 17 10 10 16 15 24 32 38 38 40 31 30 32 31 28 27 24 24 23 22 21 22 26 30 33 33 34 33 30 30 28 24 23 23 22 23 24 24 23 23 24 25 26
22 13 10 14 20 19 16 4 15 22 16 19 22 23 20 22 13 16 19 20 20 17 18 22 25 29 32 33 32 30 30 29 29 30 29 28 29 30 29 29 30 29 30 30
Wind_Direction_850mb
163 139 199 128 129 114 117 94 155 97 50 30 341 293 298 304 284 229 214 222 219 222 216 214 218 219 222 225 221 220 219 219 216 213 206 211 223 229 232 237 240 245 248 251
141 205 152 148 133 127 123 111 252 112 114 208 230 294 291 293 268 243 213 206 220 225 207 207 215 221 223 222 223 226 226 228 225 223 223 222 226 231 237 242 247 248 250 253
147 184 156 152 141 125 69 179 192 150 114 327 348 259 249 278 249 224 228 202 179 193 197 198 206 214 217 223 223 224 234 236 231 229 228 226 229 235 240 243 248 249 254 258
140 85 157 149 167 149 124 183 203 135 113 68 304 301 234 215 250 209 223 225 166 164 184 188 188 196 208 215 221 224 229 235 235 231 231 233 240 244 247 252 257 262 260 261
43 111 137 155 176 153 146 143 140 117 117 148 166 215 258 146 227 253 69 116 132 152 173 175 175 174 189 205 218 225 229 233 241 238 234 239 244 250 252 253 257 269 272 260
98 99 135 176 139 166 135 97 59 68 108 240 192 173 279 113 8 69 81 98 104 142 165 176 179 181 182 195 209 225 230 230 236 239 235 235 237 243 248 255 261 268 272 262
62 351 323 130 111 93 123 148 90 58 351 216 338 129 253 23 20 300 217 138 146 151 163 181 193 199 201 199 209 222 229 230 231 237 237 241 243 247 249 252 256 261 264 258
141 178 249 322 139 156 150 169 150 168 170 187 155 216 293 47 53 61 108 112 120 134 148 165 188 224 237 237 228 226 230 232 234 238 239 240 247 248 250 253 257 264 263 263
132 66 308 74 106 142 170 183 143 106 232 127 179 236 96 90 66 78 92 105 97 104 105 107 133 286 286 276 269 264 254 247 241 241 243 245 247 249 248 248 254 265 264 268
179 103 11 102 112 324 161 155 92 22 137 190 17 272 119 6 14 142 143 129 122 109 86 67 56 334 308 302 290 274 266 264 260 255 253 252 247 251 243 239 240 256 262 261
133 83 8 86 20 95 89 91 48 109 84 144 125 260 152 340 311 216 178 166 136 108 83 41 15 350 333 322 306 294 278 259 252 251 254 252 250 245 250 239 242 246 240 266
27 109 96 81 18 344 75 139 128 126 258 31 99 293 337 53 347 141 174 175 158 116 36 23 23 12 3 356 352 338 319 296 270 248 243 244 241 231 231 233 213 227 229 233
180 15 92 41 11 13 80 84 107 99 73 190 114 273 3 325 234 181 180 205 199 185 132 25 15 13 18 24 26 28 18 340 301 98 161 184 205 217 218 161 126 153 172 153
63 67 127 162 146 131 130 114 74 99 111 157 197 290 238 274 276 280 253 225 228 239 249 266 309 352 49 45 67 77 75 78 74 104 139 171 188 203 204 179 158 135 143 150
77 98 55 49 10 65 122 141 136 121 154 133 221 201 248 224 229 283 305 233 229 234 250 256 248 259 275 102 91 104 114 117 123 138 148 151 148 151 153 154 148 154 151 149
4 122 103 28 3 30 64 87 109 105 96 41 94 275 302 326 343 9 298 233 238 244 251 251 244 231 218 181 143 128 127 127 122 121 128 126 123 120 119 120 121 122 123 120
63 119 62 282 346 7 352 225 175 158 160 141 166 236 335 326 324 338 337 314 260 258 256 258 244 226 217 207 177 150 135 131 128 127 127 125 122 123 123 120 117 116 115 110
112 84 49 140 20 60 249 338 322 205 263 216 277 274 290 284 294 293 313 310 304 252 242 243 227 218 210 202 191 168 150 142 136 135 135 133 129 130 129 127 125 117 107 101
38 106 75 120 159 283 331 185 153 168 266 179 204 305 301 312 306 268 359 308 297 252 233 223 209 208 206 198 188 177 167 160 156 155 152 149 147 149 143 137 128 118 107 96
55 58 99 68 118 183 239 185 182 102 307 183 168 288 316 346 39 261 349 341 271 224 236 215 204 199 197 197 195 189 181 182 180 181 176 172 165 156 150 143 132 119 106 76
19 7 110 98 149 290 248 216 149 87 228 168 178 179 5 21 267 304 319 332 312 234 229 202 194 193 197 212 208 204 201 200 202 195 187 181 178 177 175 172 169 167 176 212
160 128 165 83 61 286 181 124 167 186 153 162 162 107 343 329 340 331 315 301 294 251 227 206 205 201 222 228 217 218 218 214 205 210 208 207 199 197 194 203 208 225 259 274
311 179 180 184 211 249 197 221 201 176 172 197 199 251 318 309 308 329 329 295 283 256 231 229 218 212 219 216 208 206 212 218 227 237 236 218 209 210 213 222 240 253 262 273
251 173 204 89 248 236 241 237 243 232 238 251 265 283 285 270 271 296 304 302 274 263 238 224 223 223 230 239 237 238 245 252 241 228 218 215 217 226 238 246 254 259 264 269
206 148 184 259 272 274 253 235 242 252 258 264 279 268 272 263 264 280 289 292 274 260 243 228 222 223 226 236 240 237 244 240 230 224 221 225 233 239 246 252 258 265 270 270
187 195 181 235 217 204 228 196 230 240 268 270 275 270 261 255 259 277 301 297 271 252 236 225 219 217 218 223 227 228 227 224 223 223 225 232 241 250 257 261 264 267 267 271